EGGWEGGP

Guest
Details From EGGW - London Luton
To EGGP - Liverpool
Flight Number -
Tags generated
Created
Modified
Stats Distance 126 nm / 233 km
Max Altitude 6,700 ft / 2,042 m
Waypoints 3
Social Downloads 0
Likes 0
Share VATSIM

Download

Looking for another format? Having issues loading an existing format? Contact us
Advertisement - Login to hide

Notes

Basic altitude profile: - Ascent Rate: 2500ft/min - Ascent Speed: 250kts - Cruise Altitude: 1000ft - Cruise Speed: 420kts - Descent Rate: 1500ft/min - Descent Speed: 250kts Options: - Use NATs: yes - Use PACOTS: yes - Use low airways: yes - Use high airways: no

Route

EGGW WAL41 EGGP

ID Type Via Altitude Latitude Longitude Leg Dist Tot Dist Heading (true) Name
O EGGW APT - 0 ft / 0 m 51.87463˚ -0.36845˚ - 0 nm - London Luton
WAL41 FIX - 6,700 ft / 2,042 m 52.97583˚ -2.21306˚ 94 nm 94 nm 315° / 314° -
O EGGP APT - 0 ft / 0 m 53.33363˚ -2.84977˚ 31 nm 125 nm 313° / 313° Liverpool

Altitude Profile

Advertisement - Login to hide

EGGW

Details ICAO EGGW (LTN)
Name London Luton
Region United Kingdom
Timezone Europe/London (UTC+1.0)
Stats Elevation 526 ft / 160 m (AMSL)
Location 51.874629° -0.368450°
Runways 1
Magnetic Variation 0.495° W

METAR

EGGW 250520Z AUTO 24004KT 9999 NCD 15/11 Q1026

Decode

TAF

TAF EGGW 242254Z 2500/2524 17005KT CAVOK

Decode

Departure Runways

ID Width Length Bearing (true) Bearing (mag) Surface Threshold Offset Overrun Length
08 151 ft / 46 m 7,066 ft / 2,154 m 74.35° 74.84° Asphalt 0 ft / 0 m 200 ft / 61 m
26 151 ft / 46 m 7,066 ft / 2,154 m 254.38° 254.87° Asphalt 272 ft / 83 m 0 ft / 0 m

EGGP

Details ICAO EGGP (LPL)
Name Liverpool
Region United Kingdom
Timezone Europe/London (UTC+1.0)
Stats Elevation 80 ft / 24 m (AMSL)
Location 53.333632° -2.849769°
Runways 1
Magnetic Variation 1.591° W

METAR

EGGP 250520Z 20002KT CAVOK 13/13 Q1026

Decode

TAF

TAF TAF EGGP 242255Z 2500/2524 30003KT CAVOK

Decode

Destination Runways

ID Width Length Bearing (true) Bearing (mag) Surface Threshold Offset Overrun Length
09 151 ft / 46 m 7,466 ft / 2,276 m 85.59° 87.18° Asphalt 180 ft / 55 m 0 ft / 0 m
27 151 ft / 46 m 7,466 ft / 2,276 m 265.61° 267.20° Asphalt 0 ft / 0 m 0 ft / 0 m

Approach Navaids

Runway Type Ident Frequency Range Bearing (true) Bearing (mag) Slope Elevation
09 Localiser ILVR 111.75 MHz 18 nm / 33 km 85.61° 87.21° - 77 ft / 23 m (AMSL)
09 Glidescope ILVR 111.75 MHz 10 nm / 19 km 85.60° 87.19° 3.00° 80 ft / 24 m (AMSL)
09 DME ILVR 111.75 MHz 18 nm / 33 km - - - 88 ft / 27 m (AMSL)
27 Localiser ILQ 111.75 MHz 18 nm / 33 km 265.05° 266.64° - 55 ft / 17 m (AMSL)
27 Glidescope ILQ 111.75 MHz 10 nm / 19 km 265.60° 267.19° 3.00° 80 ft / 24 m (AMSL)
27 DME ILQ 111.75 MHz 18 nm / 33 km - - - 88 ft / 27 m (AMSL)

Popular Alternatives